Kodiak, AK

9:24 AM AKDT on October 01, 2016 (GMT -0800)
Kodiak

Weather History for PADQ - July, 2013

Change the Weather History Date:

Wednesday, July 10, 2013

  Actual Average Record
Temperature  
Mean Temperature 60 °F 54 °F  
Max Temperature 72 °F 59 °F 82 °F (2004)
Min Temperature 48 °F 49 °F 40 °F (1927)
Degree Days  
Heating Degree Days 5 11  
Month to date heating degree days 118 118  
Since 1 June heating degree days 449 579  
Since 1 July heating degree days 118 118  
Cooling Degree Days 0    
Month to date cooling degree days 0  
Year to date cooling degree days 3  
Since 1 June cooling degree days 3  
Growing Degree Days 10 (Base 50)    
Moisture  
Dew Point 45 °F    
Average Humidity 0    
Maximum Humidity 0    
Minimum Humidity 0    
Precipitation  
Precipitation 0.00 in 0.17 in 1.43 in (1919)
Month to date precipitation 1.04 1.64  
Year to date precipitation 30.59 38.94  
Snow  
Snow 0.00 in 0.00 in 0.00 in (2016)
Month to date snowfall 0.0 0.0  
Since 1 June snowfall 0.0 0.0  
Since 1 July snowfall 0.0 0.0  
Snow Depth 0.00 in    
Sea Level Pressure  
Sea Level Pressure 30.07 in    
Wind  
Wind Speed 7 mph (WNW)    
Max Wind Speed 16 mph    
Max Gust Speed 23 mph    
Visibility 10 miles    
Events      
T = Trace of Precipitation, MM = Missing Value Source: NWS Daily Summary

Daily Weather History Graph

Daily Weather History Graph

Search for Another Location

Airport or City:

Trip Planner

Search our weather history database for the weather conditions in past years. The results will help you decide how hot, cold, wet, or windy it might be!

Date:

Astronomy

Jul. 10, 2013 Rise Set
Actual Time 5:25 AM AKDT 11:04 PM AKDT
Civil Twilight 4:19 AM AKDT 12:09 AM AKDT
Nautical Twilight 2:47 AM AKDT 1:43 AM AKDT
Astronomical Twilight Sun does not rise Sun does not rise
Moon 8:44 AM AKDT (7/10) 11:24 PM AKDT (7/10)
Length of Visible Light 19h 50m
Length of Day
17h 38m
Waxing Crescent, 6% of the Moon is Illuminated
Jul 10
Waxing Crescent
Jul 15
First Quarter
Jul 22
Full
Jul 29
Last Quarter
Aug 6
New

Hourly Weather History & Observations

Time (AKDT) Temp. Dew Point Humidity Pressure Visibility Wind Dir Wind Speed Gust Speed Precip Events Conditions
12:53 AM 50.0 °F 44.1 °F 80% 30.15 in 10.0 mi West 8.1 mph - N/A   Partly Cloudy
1:53 AM 50.0 °F 43.0 °F 77% 30.15 in 10.0 mi West 5.8 mph - N/A   Partly Cloudy
2:53 AM 50.0 °F 42.1 °F 74% 30.14 in 10.0 mi WNW 3.5 mph - N/A   Partly Cloudy
3:53 AM 48.9 °F 43.0 °F 80% 30.14 in 10.0 mi West 5.8 mph - N/A   Partly Cloudy
4:53 AM 48.9 °F 42.1 °F 77% 30.14 in 10.0 mi West 5.8 mph - N/A   Partly Cloudy
5:53 AM 48.9 °F 42.1 °F 77% 30.13 in 10.0 mi West 3.5 mph - N/A   Partly Cloudy
6:53 AM 54.0 °F 44.1 °F 69% 30.12 in 10.0 mi West 6.9 mph - N/A   Scattered Clouds
7:53 AM 57.9 °F 45.0 °F 62% 30.11 in 10.0 mi Calm Calm - N/A   Scattered Clouds
8:53 AM 60.1 °F 46.0 °F 60% 30.10 in 10.0 mi NW 9.2 mph - N/A   Scattered Clouds
9:53 AM 63.0 °F 45.0 °F 52% 30.09 in 10.0 mi NW 11.5 mph - N/A   Scattered Clouds
10:53 AM 64.9 °F 46.9 °F 52% 30.09 in 10.0 mi NW 12.7 mph - N/A   Scattered Clouds
11:53 AM 69.1 °F 45.0 °F 42% 30.08 in 10.0 mi West 12.7 mph - N/A   Scattered Clouds
12:53 PM 70.0 °F 45.0 °F 41% 30.07 in 10.0 mi NW 10.4 mph - N/A   Mostly Cloudy
1:53 PM 71.1 °F 45.0 °F 39% 30.06 in 10.0 mi WNW 9.2 mph 17.3 mph N/A   Mostly Cloudy
2:53 PM 71.1 °F 45.0 °F 39% 30.05 in 10.0 mi WNW 9.2 mph - N/A   Mostly Cloudy
3:53 PM 72.0 °F 45.0 °F 38% 30.04 in 10.0 mi WNW 10.4 mph - N/A   Mostly Cloudy
4:53 PM 68.0 °F 46.0 °F 45% 30.03 in 10.0 mi Calm Calm - N/A   Mostly Cloudy
5:53 PM 66.9 °F 48.0 °F 51% 30.02 in 10.0 mi NNE 8.1 mph - N/A   Mostly Cloudy
6:53 PM 66.9 °F 46.0 °F 47% 30.01 in 10.0 mi ENE 4.6 mph - N/A   Mostly Cloudy
7:53 PM 66.9 °F 46.9 °F 49% 30.01 in 10.0 mi Variable 6.9 mph - N/A   Overcast
8:53 PM 66.9 °F 48.9 °F 52% 30.01 in 10.0 mi NW 8.1 mph - N/A   Mostly Cloudy
9:53 PM 64.0 °F 48.9 °F 58% 30.00 in 10.0 mi WNW 9.2 mph - N/A   Overcast
10:53 PM 61.0 °F 48.9 °F 64% 30.00 in 10.0 mi NNW 6.9 mph - N/A   Overcast
11:53 PM 59.0 °F 48.9 °F 69% 30.00 in 10.0 mi West 5.8 mph - N/A   Mostly Cloudy